Flag for U.S.A. Weather past 2 weeks in Vancouver, Washington, U.S.A.

Now
43 °F

Clear.


Feels Like: 43 °F
Forecast: 41 / 56 °F
Wind: No wind

Location: Vancouver - Pearson Airpark


UV Index: 0 (Low)

Visibility: 10 mi


Pressure: 29.85 "Hg

Humidity: 82%

Dew point: 38 °F

Location of VancouverLocation

Historic Weather in Vancouver

°F

Vancouver temperature yesterday

Maximum temperature yesterday: 59 °F (at 4:53 PM)
Minimum temperature yesterday: 37 °F (at 5:53 AM)
Average temperature yesterday: 49 °F

Past Weeks' High & Low Weather Summary

 TemperatureHumidityPressure
High74 °F (Apr 7, 4:53 PM)97% (Apr 7, 4:53 AM)30.31 "Hg (Apr 7, 4:53 AM)
Low37 °F (Apr 13, 5:53 AM)19% (Apr 13, 5:53 PM)29.84 "Hg (Apr 17, 4:53 PM)
Average53 °F67%30.12 "Hg
* Reported Apr 4 4:53 AM — Apr 19 4:53 AM, Vancouver, Weather by CustomWeather, © 2014

Note: Actual official high and low records may vary slightly from our data, if they occured in-between our weather recording intervals... More about our weather records

Advertising

Historic Weather Conditions — Data for Previous 24 hours

 ConditionsComfort  
Time TempWeatherWind HumidityBarometerVisibility
4:53 AM
Apr 19
43 °FClear.No wind82%29.85 "Hg10 mi
3:53 AM41 °FClear.No wind86%29.85 "Hg10 mi
2:53 AM42 °FClear.3 mph85%29.85 "Hg10 mi
1:53 AM41 °FClear.No wind86%29.86 "Hg10 mi
12:53 AM43 °FClear.No wind79%29.87 "Hg10 mi
11:53 PM
Apr 18
45 °FClear.No wind76%29.88 "Hg10 mi
10:53 PM46 °FClear.No wind73%29.89 "Hg10 mi
9:53 PM50 °FClear.No wind63%29.91 "Hg10 mi
8:53 PM54 °FSunny.3 mph51%29.93 "Hg10 mi
7:53 PM56 °FSunny.3 mph49%29.95 "Hg10 mi
6:53 PM58 °FSunny.7 mph46%29.97 "Hg10 mi
5:53 PM59 °FSunny.8 mph42%30.00 "Hg10 mi
4:53 PM59 °FSunny.7 mph44%30.03 "Hg10 mi
3:53 PM57 °FSunny.7 mph42%30.06 "Hg10 mi
2:53 PM57 °FSunny.5 mph47%30.09 "Hg10 mi
1:53 PM55 °FSunny.6 mph45%30.12 "Hg10 mi
12:53 PM55 °FSunny.6 mph49%30.15 "Hg10 mi
11:53 AM53 °FScattered clouds.3 mph52%30.16 "Hg10 mi
10:53 AM51 °FScattered clouds.3 mph61%30.16 "Hg10 mi
9:53 AM49 °FSunny.5 mph74%30.15 "Hg10 mi
8:53 AM47 °FSunny.7 mph83%30.15 "Hg10 mi
7:53 AM44 °FSunny.No wind89%30.15 "Hg10 mi
7:01 AM37 °FFog.No wind96%30.14 "Hg1 mi
Weather by CustomWeather, © 2014

See weather overview